Temperature
25 23 23 24 27 30 32 34 34 34 34 34 33 34 32 30 29 28 27 25 24 24 24 23 22 21 21 21 20 20 20 20 20 20 20 20 21 20 20 20 20 20 19 19 19 20 20 20 20
24 23 25 27 29 29 31 34 33 34 34 34 34 34 32 30 29 28 26 24 24 24 24 23 22 21 21 20 20 20 20 20 20 20 20 20 20 20 20 20 20 20 20 20 20 20 20 20 20
25 25 27 31 30 29 31 34 34 34 34 34 33 32 30 29 28 27 25 24 23 24 24 24 23 22 21 21 20 20 20 20 20 20 20 20 20 20 20 20 20 20 20 20 20 20 20 20 20
24 28 29 32 33 32 33 34 35 34 34 34 33 31 29 28 28 26 25 25 23 23 24 24 23 22 22 21 21 20 20 20 20 20 20 20 20 20 20 20 20 20 20 20 20 20 20 20 20
27 29 32 33 34 35 35 35 35 34 34 34 32 30 28 28 27 26 26 25 23 22 24 24 23 23 22 21 21 21 20 20 20 20 20 20 20 20 20 20 20 20 19 19 19 19 19 19 19
29 33 33 33 33 35 36 35 35 35 34 34 32 30 28 27 26 26 26 25 24 23 23 24 23 23 22 22 21 21 21 20 20 20 20 20 20 20 20 20 20 19 19 19 19 19 19 19 19
30 32 33 34 34 34 35 35 34 32 31 31 32 30 28 27 27 27 27 26 25 24 23 24 23 23 23 22 22 21 21 21 21 20 20 20 20 20 20 20 20 20 19 19 19 19 19 19 19
31 33 33 34 35 34 33 33 33 31 29 30 32 31 29 27 27 27 27 27 26 24 23 24 24 23 23 22 22 22 21 21 21 21 20 20 20 20 20 20 20 19 19 19 19 19 19 19 19
31 32 32 34 34 34 33 32 32 32 31 32 32 31 29 27 27 27 27 27 26 25 23 23 22 23 22 22 22 22 21 21 21 21 20 20 20 20 20 19 19 19 19 19 19 19 19 19 19
33 32 33 35 35 35 34 34 33 34 34 32 30 29 28 27 27 27 27 26 26 25 24 23 22 22 21 21 21 21 21 21 21 20 20 20 20 19 19 19 19 19 19 19 19 19 19 19 19
33 33 34 35 35 35 35 35 35 35 34 29 26 26 27 27 27 27 27 26 25 25 25 24 23 22 22 22 21 21 20 20 20 20 19 19 19 19 19 19 19 19 19 19 19 19 19 19 19
33 34 34 34 34 34 34 35 35 35 33 30 27 25 25 27 28 28 27 27 26 25 24 24 24 23 22 22 22 21 20 20 20 20 19 19 19 19 19 19 19 19 19 19 18 18 18 18 18
33 33 33 33 34 34 34 34 35 35 34 31 28 26 26 27 28 28 28 27 26 25 24 24 23 23 22 21 21 21 21 20 20 20 19 19 19 19 19 19 19 19 19 18 18 18 18 18 18
32 33 33 33 33 34 34 34 34 35 34 33 31 29 29 29 29 29 28 27 26 25 24 24 23 22 22 21 21 20 20 20 20 20 19 19 19 19 19 19 19 19 19 19 19 19 18 18 19
32 32 32 33 33 34 34 34 34 35 35 34 33 32 31 30 29 29 27 27 26 25 24 23 22 21 21 21 20 20 20 20 20 20 19 19 19 19 19 18 18 18 18 18 18 18 18 18 18
32 31 31 33 34 34 34 32 34 35 35 34 33 32 31 30 29 28 27 27 26 24 23 23 22 21 21 20 20 20 20 20 20 19 19 19 18 18 18 18 18 18 18 18 18 18 18 18 17
31 30 31 33 35 35 33 32 34 34 34 33 33 32 31 30 29 28 27 26 25 24 23 22 22 21 21 20 20 20 20 20 20 19 19 18 18 18 17 17 17 17 17 17 17 17 17 17 17
30 31 32 33 34 34 33 33 34 34 33 32 32 32 31 30 29 28 27 26 25 24 23 22 21 21 20 20 20 20 20 20 20 20 19 19 18 18 17 17 17 17 17 17 17 17 17 17 17
31 31 31 32 34 33 32 32 33 33 32 32 31 31 30 29 28 26 25 24 23 22 22 22 21 21 20 20 20 20 20 20 20 20 19 19 18 17 17 17 16 16 16 16 16 16 16 16 16
31 30 31 32 32 32 31 31 32 33 32 31 29 28 27 26 25 23 22 21 21 21 21 21 21 21 21 21 21 21 21 20 20 20 19 19 18 17 17 16 16 16 16 16 15 15 15 15 15
30 30 30 30 31 31 31 30 31 32 29 27 25 24 22 20 19 18 18 18 18 18 19 20 20 20 20 20 20 20 20 20 20 20 19 19 18 17 17 16 16 15 16 15 15 15 15 15 15
29 30 30 30 29 29 30 29 30 30 27 24 20 18 17 16 16 16 16 16 17 18 19 20 20 20 20 20 20 20 20 20 20 20 19 19 18 18 17 16 16 16 16 15 15 15 15 15 15
30 30 30 30 29 28 29 28 29 29 25 22 20 18 16 16 16 15 15 15 16 17 18 19 19 19 19 19 19 19 19 19 20 20 19 19 18 18 17 16 16 16 16 15 15 16 15 15 15
31 30 30 29 26 24 23 24 27 27 24 22 20 18 17 16 16 15 15 15 15 16 17 18 18 18 18 18 18 18 18 18 18 19 19 18 18 18 17 17 16 16 16 16 16 16 15 15 15
30 29 27 26 22 21 21 23 24 23 23 21 20 18 17 16 16 15 15 14 15 15 15 15 16 16 16 16 16 16 16 16 17 17 18 18 17 17 17 17 16 16 16 16 15 15 15 15 15
29 29 27 26 26 26 24 24 21 22 22 21 20 19 18 17 16 16 15 15 14 14 14 14 14 14 15 15 15 15 15 15 15 16 16 17 17 17 17 17 16 16 16 15 15 15 15 14 14
29 28 29 27 27 27 27 22 20 20 20 20 20 19 18 17 17 16 16 15 14 14 14 14 14 14 14 14 15 14 14 14 14 15 15 15 16 16 16 16 15 15 15 15 15 15 14 14 14
30 29 28 27 26 25 27 23 21 19 19 20 19 18 17 17 17 16 16 15 15 14 14 13 13 13 13 13 14 14 14 14 14 14 14 14 15 15 15 15 15 14 14 14 14 14 14 14 14
29 28 28 27 26 25 25 23 21 20 20 19 19 18 17 16 16 15 15 15 14 14 14 13 13 12 12 12 12 12 13 13 14 14 14 14 14 14 14 14 14 14 14 14 14 14 14 14 14
28 28 27 26 25 25 25 21 20 19 19 18 18 17 16 15 15 15 15 14 13 13 13 12 12 12 11 11 11 11 11 11 11 12 12 13 13 13 14 14 13 14 14 14 14 14 14 14 14
Wind_Speed
10 12 11 7 6 6 2 10 15 15 12 11 9 9 20 17 12 10 15 23 25 22 21 20 17 15 15 15 16 16 16 15 13 12 11 10 9 8 8 8 8 8 8 7 7 7 8 7 7
11 13 9 5 5 4 4 11 12 10 7 7 7 11 18 15 14 15 19 23 24 21 20 19 19 16 16 16 15 15 15 15 14 12 11 11 9 8 7 7 7 7 7 6 5 6 6 6 6
12 14 6 6 3 1 2 10 8 7 7 8 12 15 12 10 11 14 18 22 23 20 19 21 20 18 16 16 15 15 15 14 13 12 11 11 10 8 7 7 7 6 6 6 5 5 5 5 4
9 7 6 9 4 6 4 7 6 7 6 7 13 12 9 8 10 18 19 22 22 20 20 21 20 18 17 16 15 14 14 13 12 12 11 10 10 9 8 7 6 6 6 5 5 5 5 4 4
9 7 11 12 3 4 5 6 5 7 4 10 18 14 12 11 17 19 18 21 20 19 19 21 20 18 17 16 15 14 13 12 12 11 11 10 9 8 8 7 7 7 7 7 7 7 7 8 7
6 8 13 9 2 4 5 5 4 5 5 10 19 16 10 13 15 17 17 19 19 20 19 20 19 18 16 15 15 14 13 12 12 11 11 10 10 9 9 9 9 9 9 9 9 9 9 10 10
10 13 17 17 4 4 1 4 5 6 11 7 9 14 12 16 16 16 16 17 19 22 20 17 18 17 16 16 15 15 14 14 13 13 12 12 12 11 11 12 12 11 11 11 11 11 12 12 12
12 12 19 18 8 2 3 7 4 14 12 8 6 10 15 19 17 16 15 15 16 20 20 17 17 17 16 15 16 15 14 14 13 13 13 13 13 13 15 15 16 15 15 14 14 14 14 14 15
14 13 17 14 7 1 3 2 2 2 11 12 4 13 21 22 20 17 14 13 12 17 19 18 18 16 16 16 18 17 15 15 14 14 15 14 13 15 17 20 20 20 19 18 17 17 17 16 17
12 14 18 10 7 4 1 4 4 7 9 7 13 16 18 20 19 18 16 15 14 13 17 15 17 17 15 14 16 15 14 15 16 14 16 15 15 14 15 16 24 23 22 21 20 19 18 17 15
15 18 19 14 9 8 9 10 9 11 1 13 15 6 9 16 18 18 17 16 16 13 10 13 14 15 12 8 11 10 11 12 16 16 14 14 12 11 12 6 12 17 18 16 17 17 15 15 13
16 17 17 14 13 11 11 14 13 10 4 19 24 21 20 19 19 18 18 17 17 15 12 12 9 10 5 4 6 6 5 5 6 12 15 10 5 5 4 2 3 6 9 10 9 7 11 12 12
14 15 18 18 16 14 15 15 15 15 1 14 23 26 24 20 18 17 16 15 17 16 13 11 10 9 6 2 1 3 3 3 4 5 8 7 4 4 4 3 2 5 5 3 3 3 4 3 3
14 17 16 15 16 17 18 17 17 18 12 9 14 16 18 17 17 14 15 15 15 14 13 11 11 10 7 5 3 2 2 0 1 1 1 2 2 2 3 4 4 4 4 5 3 4 4 4 4
14 17 19 20 21 20 18 17 17 18 16 8 8 9 11 14 14 14 15 16 17 14 12 12 11 12 9 7 5 4 4 3 1 1 1 2 3 3 4 4 5 4 5 6 5 6 5 6 7
17 18 20 22 22 19 13 15 16 16 12 7 6 8 10 11 15 15 16 14 16 15 13 12 11 13 11 7 4 4 4 2 2 2 3 3 2 4 3 4 5 4 5 5 6 7 6 6 7
17 19 20 21 20 16 12 14 15 13 6 6 6 8 9 11 13 13 15 13 13 14 13 11 8 10 10 8 6 6 3 2 2 3 3 3 1 2 1 2 3 2 3 4 6 3 4 5 6
13 12 12 14 11 9 9 13 13 8 7 8 9 8 9 13 12 11 11 10 10 11 12 10 8 8 8 7 6 3 3 4 4 3 5 4 0 2 3 4 3 3 4 4 4 5 5 5 6
12 13 15 13 9 5 7 14 16 8 6 8 8 7 7 10 11 7 6 5 7 8 10 9 8 8 5 4 3 3 3 1 1 3 6 4 1 2 1 4 4 4 4 5 6 5 7 7 6
11 11 12 11 11 9 10 14 17 13 9 5 5 5 5 6 3 4 4 6 8 7 7 8 8 7 5 5 3 2 2 1 1 1 4 4 3 2 3 3 3 5 5 6 6 5 4 6 6
11 11 13 11 10 12 15 17 16 11 3 7 11 13 14 15 17 19 16 15 14 9 4 4 6 6 3 6 4 3 3 3 4 4 4 5 4 3 1 1 3 4 5 5 5 5 6 6 6
10 9 11 13 13 13 14 13 8 2 8 17 21 22 20 20 22 20 17 14 10 7 7 6 5 3 1 1 3 3 3 3 2 2 3 5 4 4 4 3 3 3 5 6 6 5 5 6 6
10 13 14 15 15 16 15 12 1 9 13 16 18 18 16 16 19 17 12 8 9 9 10 11 10 8 6 5 7 6 6 5 3 2 2 4 5 6 6 6 4 3 5 6 5 6 6 5 6
10 13 16 13 8 10 13 14 0 7 10 15 16 17 17 18 18 15 12 10 11 13 14 15 14 14 12 10 9 8 8 8 8 7 5 3 4 6 8 7 5 3 4 5 5 6 7 7 7
12 12 10 8 1 5 12 11 3 13 16 16 16 16 16 16 15 14 13 13 13 14 14 14 15 15 15 16 15 13 10 8 8 8 8 7 5 4 5 5 3 3 4 5 6 6 7 8 8
10 10 10 14 13 7 11 3 8 14 14 14 14 14 14 14 13 13 13 11 11 12 12 13 13 12 12 13 13 13 14 11 9 10 9 7 4 3 2 4 4 5 6 6 6 6 7 7 7
7 11 15 14 16 14 2 8 7 8 8 9 11 12 12 11 11 10 9 9 9 9 9 9 9 9 9 10 10 8 9 10 11 11 10 9 9 8 4 2 4 5 6 6 6 6 7 7 7
4 10 9 9 10 14 12 3 4 7 5 4 8 10 10 11 11 11 9 9 8 7 6 6 6 7 8 9 9 9 9 8 8 9 9 9 9 10 10 9 7 6 7 7 7 6 7 6 7
8 9 9 8 10 12 15 5 7 6 6 6 7 8 10 12 12 12 11 11 10 10 8 8 7 7 7 8 8 9 9 10 9 8 8 8 8 9 9 10 9 9 9 8 7 7 7 7 6
7 8 7 7 10 11 15 4 6 6 5 5 8 10 11 13 14 14 14 13 12 12 10 9 8 8 7 7 8 9 9 10 10 10 9 9 9 9 9 9 10 11 11 10 8 8 7 6 6
Wind_Direction
231 233 229 251 256 257 36 63 59 57 60 60 43 45 62 55 65 85 111 112 117 125 132 132 130 129 128 131 137 141 140 140 140 138 134 129 126 124 119 114 111 110 111 110 108 107 105 104 105
265 256 243 249 265 315 65 74 69 64 64 89 79 72 76 69 83 104 111 116 122 129 138 138 136 135 133 135 139 143 144 144 145 145 143 141 139 139 135 128 124 123 120 118 115 114 114 115 118
265 263 260 242 214 330 57 84 84 94 87 88 80 61 63 86 103 115 122 127 127 133 139 138 144 143 142 141 144 148 150 151 152 153 153 152 152 155 156 150 145 142 139 137 136 133 131 132 137
271 253 236 253 213 172 136 94 88 75 78 102 103 84 79 76 114 123 135 133 127 135 139 146 150 150 150 150 151 154 157 159 161 162 163 164 166 170 174 175 173 171 168 168 169 172 171 172 177
260 261 259 269 278 179 136 113 123 116 105 89 92 96 97 99 110 129 146 130 135 141 139 149 153 156 157 158 159 162 165 168 170 172 174 177 180 185 192 196 197 198 198 198 199 201 201 200 203
275 271 281 296 344 276 149 148 161 116 90 109 113 110 109 121 127 147 146 139 147 139 138 147 156 160 164 166 168 170 174 177 181 184 186 190 194 202 210 213 214 215 216 215 215 217 218 217 217
274 291 291 290 221 237 79 156 148 93 54 8 109 119 136 142 147 155 148 153 148 140 139 151 160 167 171 175 178 180 183 186 190 195 200 205 209 213 219 223 224 225 227 227 227 227 228 229 230
277 289 289 293 289 169 15 329 83 109 118 223 209 135 146 145 156 150 156 157 147 140 144 157 164 168 175 181 187 188 191 194 199 205 210 215 221 226 229 230 226 226 226 226 228 230 231 232 234
270 271 275 298 328 164 134 242 316 217 176 190 128 133 145 150 153 153 163 155 148 145 149 164 166 167 179 184 185 189 195 201 204 212 218 221 228 229 227 227 225 222 222 222 224 227 231 234 237
252 266 273 314 338 328 328 260 238 223 214 125 72 100 134 153 156 164 166 160 162 161 161 167 166 167 185 191 171 185 196 199 206 214 210 213 226 240 248 225 216 218 221 222 223 226 229 233 240
259 266 284 308 316 323 309 288 258 255 209 107 95 67 163 168 168 171 168 169 168 172 177 163 165 168 184 173 161 186 196 193 198 217 219 211 224 236 254 251 205 214 222 226 229 228 230 232 236
260 273 289 294 295 301 297 296 295 294 112 135 143 176 203 186 179 176 172 176 165 168 179 172 160 148 166 164 168 175 188 180 188 202 213 213 215 241 260 278 243 217 220 218 232 229 221 229 243
269 273 276 280 284 281 277 276 283 285 148 134 153 175 194 188 184 181 170 164 154 163 174 172 140 127 133 131 295 206 198 206 208 195 205 211 216 239 267 282 282 280 279 250 219 243 250 251 276
278 285 286 285 282 277 272 270 269 270 256 171 166 182 194 188 190 176 161 155 155 159 167 147 137 137 145 155 188 302 313 264 267 98 146 169 196 231 259 267 266 270 289 304 294 273 260 262 263
270 273 275 269 264 258 259 262 263 265 261 221 197 199 202 190 192 173 169 167 162 159 155 142 154 154 160 169 182 194 233 226 187 141 195 179 206 222 241 254 256 253 263 265 264 256 240 242 242
267 261 260 257 251 246 247 267 275 273 266 242 230 215 203 190 192 176 175 177 165 161 154 156 170 160 154 158 177 226 226 169 167 188 186 195 226 223 235 251 254 247 250 245 248 246 248 246 246
251 245 251 255 247 232 240 265 269 279 289 285 269 240 201 192 199 177 178 177 160 156 150 149 140 137 148 163 184 214 197 164 209 197 151 133 226 217 211 275 270 256 270 268 274 272 246 260 260
312 297 265 258 246 212 247 272 283 306 320 307 291 254 207 202 205 185 176 172 147 139 135 135 139 139 151 168 177 201 168 188 201 158 130 123 281 66 50 312 354 354 312 295 305 326 302 280 270
313 313 313 311 311 289 278 287 294 294 279 274 273 267 234 216 213 193 168 143 112 107 122 133 151 140 155 152 157 161 153 167 155 139 124 124 154 75 39 293 353 318 297 321 325 312 303 295 285
295 300 300 306 319 309 285 278 279 276 257 260 295 300 284 254 280 358 40 56 69 82 107 120 130 143 167 128 112 113 97 242 235 114 140 167 184 174 275 22 338 319 331 307 285 290 293 297 301
309 321 322 317 302 285 276 269 263 266 345 47 31 19 22 35 32 20 17 37 40 22 52 120 121 137 161 136 172 179 163 225 231 195 187 177 173 183 221 312 297 314 304 300 326 303 286 290 296
307 324 315 304 292 282 281 282 276 189 69 56 51 50 45 48 48 43 26 20 32 15 355 40 64 108 109 161 269 264 235 236 245 213 195 158 170 198 199 214 249 287 296 296 291 310 318 299 293
307 312 298 288 285 283 285 277 56 74 72 63 56 57 58 61 68 65 50 30 31 32 26 27 25 28 18 350 322 311 294 288 285 266 172 165 201 207 205 200 198 243 270 284 305 309 297 291 287
301 293 285 280 292 305 322 309 195 71 73 75 65 62 61 61 65 69 63 46 36 35 32 29 26 24 14 1 340 318 306 309 312 310 298 249 226 209 199 186 176 221 263 290 296 290 286 281 283
327 310 306 310 288 223 229 259 84 69 64 68 66 62 62 63 63 61 55 47 39 34 31 29 28 25 20 18 9 0 349 330 307 291 277 256 249 233 183 164 149 231 262 271 270 273 277 279 279
316 309 310 317 318 299 218 226 80 72 69 67 66 61 57 56 57 56 52 49 42 36 28 25 24 21 17 16 11 15 13 2 349 339 325 309 294 291 114 148 192 225 246 262 271 280 276 279 286
315 331 328 317 307 307 310 116 114 83 60 50 52 48 41 39 41 42 42 40 35 32 27 18 14 7 4 3 356 1 6 0 355 351 350 343 337 322 313 255 235 240 246 252 261 266 274 280 284
282 315 310 316 315 314 319 118 147 135 120 67 40 28 18 10 10 10 8 8 4 360 7 6 0 350 344 344 343 342 342 339 338 339 347 349 344 337 326 309 284 267 258 253 251 262 272 285 287
324 323 332 323 318 322 317 13 68 87 49 30 21 6 356 349 346 341 338 339 335 335 343 347 344 337 332 332 332 327 323 323 321 317 323 333 332 332 326 313 297 280 268 259 252 253 268 279 290
311 306 314 317 321 315 308 22 53 56 37 2 342 340 336 329 325 323 321 321 320 324 328 329 328 321 315 314 313 311 313 314 312 309 315 317 315 314 314 313 306 292 281 270 260 259 270 281 289
Height
1491 1490 1491 1495 1491 1484 1474 1462 1457 1460 1462 1465 1465 1464 1470 1477 1482 1494 1497 1497 1498 1501 1506 1509 1512 1514 1517 1520 1523 1525 1527 1529 1531 1533 1534 1536 1537 1538 1539 1540 1542 1543 1544 1545 1546 1547 1548 1548 1549
1490 1492 1496 1494 1489 1495 1480 1462 1463 1464 1465 1465 1466 1467 1473 1482 1487 1492 1496 1498 1500 1502 1506 1510 1512 1515 1518 1521 1524 1526 1528 1530 1532 1533 1535 1537 1538 1539 1541 1542 1543 1544 1545 1546 1547 1548 1549 1549 1550
1491 1493 1495 1484 1484 1493 1480 1462 1462 1463 1464 1465 1469 1473 1480 1486 1490 1494 1497 1500 1501 1503 1507 1510 1513 1516 1519 1522 1524 1526 1528 1530 1532 1534 1535 1537 1538 1540 1541 1543 1544 1545 1546 1547 1548 1549 1549 1550 1550
1493 1494 1490 1480 1477 1474 1467 1461 1461 1464 1465 1464 1468 1478 1486 1489 1491 1494 1498 1501 1502 1504 1507 1510 1513 1516 1519 1522 1524 1526 1528 1530 1532 1534 1535 1537 1538 1540 1541 1542 1543 1544 1545 1546 1547 1548 1549 1550 1550
1496 1491 1481 1474 1468 1461 1457 1459 1461 1465 1465 1465 1471 1481 1488 1491 1492 1495 1499 1502 1503 1506 1507 1510 1513 1516 1518 1521 1524 1526 1528 1530 1532 1533 1535 1537 1538 1539 1541 1542 1543 1544 1544 1545 1546 1547 1548 1549 1549
1495 1484 1480 1476 1471 1461 1455 1459 1460 1462 1465 1467 1473 1481 1489 1492 1494 1496 1499 1502 1505 1507 1507 1511 1513 1515 1518 1520 1523 1525 1527 1529 1531 1533 1534 1536 1537 1538 1539 1540 1541 1542 1543 1544 1544 1545 1546 1547 1547
1494 1486 1480 1470 1467 1465 1458 1458 1461 1466 1469 1471 1472 1479 1487 1491 1493 1496 1499 1502 1505 1506 1507 1511 1513 1515 1517 1520 1522 1524 1526 1528 1530 1532 1533 1535 1536 1537 1538 1538 1539 1540 1541 1542 1542 1543 1544 1545 1545
1491 1486 1478 1466 1463 1464 1463 1463 1463 1467 1474 1477 1471 1476 1483 1488 1492 1495 1498 1501 1504 1505 1506 1510 1512 1515 1517 1519 1522 1524 1526 1527 1529 1530 1532 1533 1534 1535 1536 1537 1537 1538 1539 1540 1540 1541 1541 1542 1543
1490 1488 1482 1467 1465 1464 1463 1467 1468 1467 1468 1468 1469 1471 1478 1485 1490 1494 1497 1501 1504 1505 1505 1508 1511 1513 1516 1518 1520 1523 1525 1526 1527 1528 1530 1531 1532 1532 1533 1534 1535 1536 1537 1537 1538 1538 1539 1539 1540
1484 1485 1474 1463 1461 1461 1462 1463 1463 1463 1464 1467 1473 1478 1483 1486 1488 1492 1495 1498 1502 1504 1506 1507 1510 1511 1515 1518 1519 1521 1523 1524 1525 1526 1527 1528 1529 1530 1532 1532 1532 1533 1534 1534 1534 1535 1535 1536 1536
1480 1478 1469 1465 1464 1464 1464 1461 1460 1458 1460 1468 1478 1487 1490 1487 1488 1489 1492 1495 1498 1502 1505 1507 1510 1511 1515 1518 1518 1519 1520 1522 1523 1524 1525 1526 1527 1528 1529 1530 1529 1530 1530 1530 1530 1531 1531 1532 1532
1477 1474 1471 1468 1468 1467 1466 1463 1460 1457 1461 1466 1471 1482 1483 1484 1485 1486 1489 1492 1495 1498 1502 1505 1508 1509 1513 1516 1517 1519 1520 1521 1521 1521 1522 1523 1524 1525 1526 1527 1528 1528 1528 1528 1527 1527 1527 1528 1529
1475 1474 1473 1470 1468 1468 1466 1464 1462 1459 1461 1464 1470 1476 1478 1479 1480 1482 1485 1488 1491 1494 1498 1501 1503 1506 1508 1511 1513 1516 1518 1519 1520 1520 1520 1520 1521 1521 1523 1523 1524 1525 1525 1525 1525 1524 1524 1525 1526
1477 1474 1470 1469 1468 1466 1464 1462 1461 1459 1459 1461 1466 1472 1474 1475 1476 1478 1481 1484 1487 1491 1494 1497 1499 1502 1505 1507 1510 1512 1514 1515 1516 1516 1516 1516 1517 1518 1518 1519 1519 1520 1520 1520 1520 1520 1520 1520 1521
1476 1475 1472 1468 1465 1461 1460 1461 1458 1457 1456 1458 1462 1466 1469 1472 1474 1475 1477 1479 1483 1486 1490 1493 1496 1499 1502 1504 1506 1509 1510 1512 1512 1513 1513 1513 1514 1514 1515 1515 1515 1515 1515 1515 1515 1515 1515 1515 1515
1475 1475 1475 1463 1457 1455 1461 1468 1456 1453 1452 1454 1458 1462 1466 1469 1470 1472 1474 1476 1478 1481 1485 1489 1494 1496 1498 1501 1504 1506 1508 1509 1509 1510 1510 1510 1511 1511 1511 1511 1511 1511 1511 1511 1511 1511 1510 1510 1510
1472 1475 1469 1457 1446 1447 1455 1461 1453 1451 1452 1455 1457 1460 1462 1465 1467 1468 1470 1473 1474 1477 1480 1486 1491 1493 1496 1498 1500 1503 1505 1506 1507 1507 1508 1508 1509 1509 1509 1509 1509 1509 1508 1508 1508 1508 1507 1507 1506
1473 1463 1458 1454 1442 1447 1455 1456 1451 1451 1453 1456 1457 1458 1460 1461 1464 1466 1468 1471 1471 1474 1478 1483 1489 1491 1494 1496 1498 1501 1503 1504 1505 1506 1505 1506 1507 1507 1507 1507 1507 1506 1505 1505 1505 1504 1503 1503 1503
1469 1467 1464 1454 1445 1450 1458 1458 1453 1452 1455 1457 1458 1458 1458 1460 1463 1465 1467 1467 1468 1468 1473 1481 1488 1489 1491 1494 1497 1499 1500 1501 1503 1504 1503 1504 1505 1505 1504 1504 1503 1503 1502 1502 1501 1500 1499 1499 1499
1469 1471 1466 1458 1451 1455 1460 1459 1453 1450 1452 1456 1459 1460 1461 1462 1464 1466 1465 1462 1462 1466 1472 1479 1486 1490 1492 1492 1494 1496 1498 1499 1501 1502 1501 1501 1501 1501 1502 1501 1500 1499 1499 1498 1497 1496 1495 1495 1495
1473 1474 1471 1469 1462 1458 1461 1461 1453 1449 1454 1458 1462 1465 1468 1471 1470 1469 1464 1457 1462 1468 1471 1481 1486 1490 1493 1492 1493 1495 1496 1497 1498 1498 1498 1498 1498 1498 1498 1497 1496 1495 1495 1494 1494 1493 1492 1491 1491
1477 1469 1469 1468 1471 1470 1462 1473 1455 1452 1458 1466 1471 1474 1477 1475 1473 1470 1466 1463 1471 1475 1478 1484 1487 1490 1492 1492 1493 1494 1494 1495 1496 1496 1496 1495 1495 1495 1495 1494 1493 1492 1491 1491 1490 1490 1489 1488 1487
1472 1467 1467 1467 1470 1473 1468 1472 1463 1453 1466 1475 1480 1482 1483 1481 1478 1479 1479 1482 1483 1482 1483 1484 1487 1488 1489 1489 1490 1491 1491 1492 1493 1493 1493 1492 1492 1492 1491 1490 1489 1489 1488 1487 1487 1486 1485 1484 1483
1466 1467 1465 1466 1478 1500 1497 1492 1474 1466 1472 1480 1484 1486 1486 1485 1484 1486 1489 1489 1487 1485 1484 1485 1486 1485 1485 1485 1486 1488 1488 1488 1488 1489 1490 1489 1489 1488 1488 1487 1486 1485 1485 1484 1483 1482 1481 1480 1479
1470 1476 1485 1490 1505 1512 1498 1495 1485 1480 1481 1485 1488 1489 1489 1489 1489 1490 1491 1491 1489 1487 1486 1486 1484 1483 1482 1481 1482 1483 1483 1484 1484 1485 1486 1486 1486 1486 1485 1483 1482 1482 1481 1480 1479 1478 1477 1476 1475
1473 1475 1490 1497 1492 1483 1485 1488 1493 1488 1491 1493 1493 1493 1493 1493 1493 1492 1493 1492 1491 1490 1489 1487 1484 1482 1481 1481 1480 1480 1479 1479 1479 1479 1480 1480 1481 1482 1481 1479 1478 1478 1477 1476 1475 1474 1473 1472 1471
1475 1475 1470 1478 1475 1476 1474 1489 1495 1492 1495 1495 1496 1496 1496 1496 1495 1494 1493 1492 1492 1491 1489 1487 1484 1483 1482 1481 1480 1479 1478 1477 1476 1475 1474 1474 1475 1476 1476 1475 1474 1474 1473 1472 1471 1470 1469 1468 1466
1468 1470 1474 1482 1491 1491 1476 1487 1497 1499 1499 1498 1498 1499 1499 1498 1496 1494 1493 1491 1490 1489 1487 1485 1483 1482 1480 1478 1477 1476 1475 1474 1473 1472 1470 1469 1468 1469 1469 1470 1470 1469 1468 1468 1467 1465 1464 1463 1461
1472 1473 1474 1478 1482 1494 1496 1498 1495 1499 1500 1500 1501 1502 1501 1500 1497 1495 1493 1491 1489 1487 1485 1483 1481 1479 1477 1475 1473 1471 1470 1468 1467 1467 1466 1465 1464 1463 1463 1463 1463 1464 1463 1463 1462 1461 1460 1458 1457
1471 1474 1477 1491 1492 1488 1492 1506 1501 1502 1504 1504 1504 1503 1502 1500 1497 1494 1491 1489 1486 1484 1482 1479 1477 1476 1473 1471 1469 1467 1465 1463 1461 1460 1458 1458 1457 1457 1456 1456 1456 1456 1457 1457 1457 1456 1455 1453 1452